Location: Famechon
(49.7599°N, 2.0615°E)
Time: 18:51:40
(UTC+00:00)

Cosmos 1844 Rocket - Pass Details

Date: 03 February 2023
Orbit: 825 x 843 km, 71.0° (Epoch: 25 March)

Event Time Altitude Azimuth Distance (km) Brightness Sun altitude
Rises 17:39:51 0° 332° (NNW) 3,378 6.0 -8.4°
Reaches altitude 10° 17:42:21 10° 337° (NNW) 2,440 5.2 -8.8°
Maximum altitude 17:47:51 56° 56° (NE) 977 2.7 -9.7°
Drops below altitude 10° 17:53:18 10° 134° (SE) 2,425 4.8 -10.5°
Sets 17:55:47 0° 139° (SE) 3,355 5.5 -10.9°
